N17CX EDDS-EBAW

Flight info

Callsign N17CX
Flight time 1h 13m
Altitude 23000
Route VESID2H/07 VESID DCT TUDGA/N0267F240 DCT BANIM DCT ULNOK DCT MISGI Z104 IDOVI DCT ODVUX DCT LULAT DCT TIPUT DCT ROBON DCT GESLO DCT LNO
Aircraft SF50/L-BDGRSWY/LB2U2

Departure

Time 2026-04-21 15:29
Airport Stuttgart Airport (EDDS)

Arrival

Time 2026-04-21 16:42
Airport Antwerp International Airport (Deurne) (EBAW)
Time Latitude Longitude Altitude Speed Heading
2026-04-21 15:05 48.69147 9.21363 1259 ft 0 kts 164°
2026-04-21 15:26 48.69152 9.21347 1256 ft 7 kts 317°
2026-04-21 15:26 48.69138 9.21287 1256 ft 8 kts 181°
2026-04-21 15:26 48.69091 9.21330 1252 ft 10 kts 106°
2026-04-21 15:27 48.69052 9.21418 1253 ft 12 kts 165°
2026-04-21 15:27 48.68965 9.21456 1255 ft 12 kts 164°
2026-04-21 15:27 48.68874 9.21502 1261 ft 13 kts 136°
2026-04-21 15:27 48.68868 9.21567 1250 ft 0 kts 75°
2026-04-21 15:28 48.68869 9.21575 1250 ft 11 kts 75°
2026-04-21 15:28 48.68959 9.22046 1238 ft 80 kts 74°
2026-04-21 15:28 48.69152 9.23036 1488 ft 106 kts 73°
2026-04-21 15:29 48.69370 9.24163 1949 ft 122 kts 73°
2026-04-21 15:29 48.69611 9.25471 2626 ft 135 kts 73°
2026-04-21 15:29 48.69854 9.26888 3349 ft 143 kts 75°
2026-04-21 15:29 48.70104 9.28342 4096 ft 143 kts 73°
2026-04-21 15:30 48.70388 9.29784 4831 ft 143 kts 72°
2026-04-21 15:30 48.70685 9.31308 5311 ft 160 kts 73°
2026-04-21 15:30 48.70997 9.32925 6010 ft 160 kts 73°
2026-04-21 15:30 48.71311 9.34549 6648 ft 162 kts 73°
2026-04-21 15:31 48.71627 9.36195 7255 ft 164 kts 73°
2026-04-21 15:31 48.71949 9.37863 7847 ft 166 kts 73°
2026-04-21 15:31 48.72281 9.39540 8413 ft 167 kts 70°
2026-04-21 15:31 48.72984 9.40899 8930 ft 172 kts 37°
2026-04-21 15:32 48.74102 9.41569 9498 ft 176 kts 18°
2026-04-21 15:32 48.75287 9.42065 10044 ft 177 kts 20°
2026-04-21 15:32 48.76473 9.42590 10522 ft 179 kts 19°
2026-04-21 15:32 48.77690 9.43070 10989 ft 182 kts 11°
2026-04-21 15:33 48.78969 9.42949 11465 ft 188 kts 351°
2026-04-21 15:33 48.80189 9.42199 11954 ft 191 kts 336°
2026-04-21 15:33 48.81385 9.41303 12457 ft 192 kts 337°
2026-04-21 15:33 48.82592 9.40435 12964 ft 192 kts 336°
2026-04-21 15:34 48.83800 9.39546 13440 ft 194 kts 335°
2026-04-21 15:34 48.85014 9.38652 13927 ft 194 kts 335°
2026-04-21 15:34 48.86234 9.37753 14375 ft 195 kts 335°
2026-04-21 15:34 48.87458 9.36852 14819 ft 196 kts 335°
2026-04-21 15:35 48.88687 9.35950 15262 ft 197 kts 335°
2026-04-21 15:35 48.89906 9.34997 15697 ft 198 kts 328°
2026-04-21 15:35 48.90894 9.33528 16141 ft 201 kts 309°
2026-04-21 15:35 48.91525 9.31627 16600 ft 205 kts 289°
2026-04-21 15:36 48.91781 9.29489 17042 ft 207 kts 282°
2026-04-21 15:36 48.92020 9.27327 17515 ft 207 kts 283°
2026-04-21 15:36 48.92273 9.25055 18020 ft 208 kts 282°
2026-04-21 15:36 48.92496 9.22982 18469 ft 209 kts 282°
2026-04-21 15:37 48.92731 9.20785 18866 ft 211 kts 282°
2026-04-21 15:37 48.92966 9.18582 19285 ft 212 kts 282°
2026-04-21 15:37 48.93204 9.16364 19707 ft 212 kts 282°
2026-04-21 15:37 48.93441 9.14144 20134 ft 213 kts 282°
2026-04-21 15:38 48.93677 9.11949 20547 ft 214 kts 282°
2026-04-21 15:38 48.93920 9.09659 20972 ft 215 kts 282°
2026-04-21 15:38 48.94150 9.07472 21412 ft 214 kts 282°
2026-04-21 15:38 48.94310 9.05966 21720 ft 213 kts 282°
2026-04-21 15:39 48.95327 8.96394 23162 ft 228 kts 283°
2026-04-21 15:40 48.95615 8.94803 23170 ft 235 kts 294°
2026-04-21 15:41 49.01554 8.88306 23173 ft 268 kts 338°
2026-04-21 15:41 49.03302 8.87248 23176 ft 273 kts 338°
2026-04-21 15:41 49.05081 8.86180 23172 ft 277 kts 338°
2026-04-21 15:41 49.06885 8.85104 23170 ft 280 kts 338°
2026-04-21 15:42 49.08714 8.84011 23178 ft 284 kts 338°
2026-04-21 15:42 49.10563 8.82902 23178 ft 287 kts 338°
2026-04-21 15:42 49.12422 8.81779 23173 ft 291 kts 338°
2026-04-21 15:43 49.20401 8.79786 23171 ft 299 kts
2026-04-21 15:43 49.22466 8.80069 23176 ft 298 kts
2026-04-21 15:44 49.24531 8.80334 23178 ft 298 kts
2026-04-21 15:44 49.26593 8.80613 23176 ft 298 kts
2026-04-21 15:44 49.28656 8.80804 23166 ft 296 kts 358°
2026-04-21 15:44 49.30714 8.80997 23167 ft 296 kts
2026-04-21 15:45 49.32762 8.81299 23170 ft 296 kts
2026-04-21 15:45 49.34807 8.81651 23180 ft 297 kts
2026-04-21 15:45 49.36858 8.82062 23185 ft 298 kts
2026-04-21 15:45 49.38921 8.82351 23185 ft 297 kts
2026-04-21 15:46 49.40984 8.82590 23183 ft 298 kts
2026-04-21 15:46 49.43049 8.82870 23187 ft 298 kts
2026-04-21 15:46 49.45107 8.83171 23189 ft 297 kts
2026-04-21 15:46 49.47168 8.83456 23188 ft 297 kts
2026-04-21 15:47 49.49227 8.83737 23189 ft 297 kts
2026-04-21 15:47 49.51287 8.84020 23189 ft 297 kts
2026-04-21 15:47 49.53344 8.84309 23189 ft 297 kts
2026-04-21 15:47 49.55402 8.84391 23184 ft 295 kts 354°
2026-04-21 15:48 49.57415 8.83793 23179 ft 295 kts 343°
2026-04-21 15:48 49.59301 8.82557 23177 ft 295 kts 331°
2026-04-21 15:48 49.60977 8.80740 23180 ft 296 kts 320°
2026-04-21 15:48 49.62384 8.78416 23181 ft 297 kts 310°
2026-04-21 15:49 49.63698 8.75955 23181 ft 297 kts 311°
2026-04-21 15:49 49.65029 8.73516 23185 ft 297 kts 311°
2026-04-21 15:49 49.66354 8.71076 23183 ft 297 kts 311°
2026-04-21 15:49 49.67678 8.68614 23180 ft 298 kts 311°
2026-04-21 15:50 49.68984 8.66186 23181 ft 298 kts 311°
2026-04-21 15:50 49.70309 8.63729 23181 ft 298 kts 311°
2026-04-21 15:50 49.71635 8.61271 23184 ft 297 kts 311°
2026-04-21 15:50 49.73107 8.59042 23188 ft 297 kts 319°
2026-04-21 15:51 49.74619 8.56872 23186 ft 297 kts 317°
2026-04-21 15:51 49.76120 8.54670 23200 ft 297 kts 317°
2026-04-21 15:51 49.77624 8.52476 23198 ft 297 kts 318°
2026-04-21 15:51 49.79132 8.50292 23200 ft 297 kts 318°
2026-04-21 15:52 49.80639 8.48096 23199 ft 297 kts 318°
2026-04-21 15:52 49.82144 8.45898 23198 ft 297 kts 318°
2026-04-21 15:52 49.83163 8.44412 23198 ft 297 kts 318°
2026-04-21 15:52 49.84865 8.41086 23191 ft 301 kts 302°
2026-04-21 15:53 49.85710 8.38115 23192 ft 303 kts 290°
2026-04-21 15:53 49.86348 8.35006 23195 ft 303 kts 290°
2026-04-21 15:53 49.87008 8.31908 23195 ft 303 kts 291°
2026-04-21 15:53 49.87669 8.28803 23197 ft 303 kts 290°
2026-04-21 15:54 49.88320 8.25700 23193 ft 303 kts 290°
2026-04-21 15:54 49.88969 8.22589 23198 ft 303 kts 290°
2026-04-21 15:54 49.89621 8.19482 23196 ft 303 kts 290°
2026-04-21 15:54 49.90272 8.16373 23198 ft 303 kts 290°
2026-04-21 15:55 49.90920 8.13264 23195 ft 303 kts 290°
2026-04-21 15:55 49.91568 8.10157 23197 ft 303 kts 290°
2026-04-21 15:55 49.92215 8.07052 23195 ft 303 kts 290°
2026-04-21 15:55 49.92860 8.03941 23197 ft 303 kts 290°
2026-04-21 15:56 49.93506 8.00831 23196 ft 303 kts 290°
2026-04-21 15:56 49.94150 7.97723 23195 ft 303 kts 290°
2026-04-21 15:56 49.94574 7.95661 23193 ft 303 kts 289°
2026-04-21 15:56 49.95159 7.92518 23198 ft 303 kts 289°
2026-04-21 15:57 49.95761 7.89378 23196 ft 303 kts 289°
2026-04-21 15:57 49.96360 7.86242 23188 ft 303 kts 289°
2026-04-21 15:57 49.96951 7.83101 23190 ft 303 kts 289°
2026-04-21 15:57 49.97541 7.79955 23187 ft 303 kts 289°
2026-04-21 15:58 49.98134 7.76815 23185 ft 303 kts 289°
2026-04-21 15:58 49.98727 7.73675 23188 ft 303 kts 289°
2026-04-21 15:58 49.99370 7.70567 23182 ft 302 kts 290°
2026-04-21 15:58 50.00009 7.67451 23187 ft 302 kts 290°
2026-04-21 15:59 50.00646 7.64335 23183 ft 303 kts 290°
2026-04-21 15:59 50.01287 7.61222 23179 ft 303 kts 290°
2026-04-21 15:59 50.01928 7.58115 23178 ft 302 kts 290°
2026-04-21 15:59 50.02568 7.54995 23178 ft 302 kts 290°
2026-04-21 16:00 50.03205 7.51879 23180 ft 303 kts 290°
2026-04-21 16:00 50.03843 7.48761 23175 ft 302 kts 290°
2026-04-21 16:00 50.04479 7.45647 23178 ft 303 kts 290°
2026-04-21 16:00 50.05115 7.42520 23178 ft 303 kts 290°
2026-04-21 16:01 50.05748 7.39400 23178 ft 303 kts 290°
2026-04-21 16:01 50.06374 7.36272 23176 ft 303 kts 290°
2026-04-21 16:01 50.07001 7.33147 23174 ft 303 kts 290°
2026-04-21 16:01 50.07621 7.30017 23177 ft 303 kts 288°
2026-04-21 16:02 50.07918 7.26795 23176 ft 306 kts 276°
2026-04-21 16:02 50.08040 7.23441 23175 ft 306 kts 277°
2026-04-21 16:02 50.08190 7.20181 23205 ft 306 kts 277°
2026-04-21 16:02 50.08338 7.16877 23204 ft 306 kts 277°
2026-04-21 16:03 50.08476 7.13571 23201 ft 306 kts 276°
2026-04-21 16:03 50.08612 7.10265 23207 ft 306 kts 276°
2026-04-21 16:03 50.08752 7.06966 23203 ft 305 kts 276°
2026-04-21 16:03 50.08887 7.03669 23203 ft 305 kts 276°
2026-04-21 16:04 50.09023 7.00370 23202 ft 306 kts 276°
2026-04-21 16:04 50.09160 6.97066 23201 ft 306 kts 276°
2026-04-21 16:04 50.09295 6.93757 23210 ft 306 kts 276°
2026-04-21 16:04 50.09429 6.90448 23208 ft 306 kts 276°
2026-04-21 16:05 50.09525 6.87141 23201 ft 307 kts 272°
2026-04-21 16:05 50.09454 6.83813 23177 ft 308 kts 271°
2026-04-21 16:05 50.09380 6.80484 23179 ft 307 kts 271°
2026-04-21 16:05 50.09317 6.77164 23181 ft 307 kts 271°
2026-04-21 16:06 50.09252 6.73844 23179 ft 307 kts 271°
2026-04-21 16:06 50.09183 6.70516 23179 ft 307 kts 271°
2026-04-21 16:06 50.09114 6.67197 23177 ft 307 kts 271°
2026-04-21 16:06 50.09046 6.63922 23178 ft 307 kts 271°
2026-04-21 16:07 50.08976 6.60605 23176 ft 307 kts 271°
2026-04-21 16:07 50.08903 6.57292 23175 ft 306 kts 271°
2026-04-21 16:07 50.08832 6.53974 23177 ft 307 kts 271°
2026-04-21 16:07 50.08757 6.50658 23176 ft 306 kts 271°
2026-04-21 16:08 50.08606 6.44035 23175 ft 306 kts 271°
2026-04-21 16:08 50.08528 6.40729 23176 ft 306 kts 271°
2026-04-21 16:08 50.08453 6.37422 23177 ft 306 kts 271°
2026-04-21 16:09 50.08374 6.34118 23179 ft 306 kts 271°
2026-04-21 16:09 50.08293 6.30810 23179 ft 306 kts 271°
2026-04-21 16:09 50.08213 6.27507 23185 ft 305 kts 271°
2026-04-21 16:09 50.08134 6.24207 23182 ft 305 kts 271°
2026-04-21 16:10 50.08049 6.20911 23183 ft 305 kts 271°
2026-04-21 16:10 50.07968 6.17613 23182 ft 305 kts 271°
2026-04-21 16:10 50.07891 6.14322 23189 ft 304 kts 271°
2026-04-21 16:10 50.07835 6.11035 23186 ft 303 kts 273°
2026-04-21 16:11 50.08081 6.07799 23187 ft 300 kts 285°
2026-04-21 16:11 50.08758 6.04744 23187 ft 298 kts 297°
2026-04-21 16:11 50.09819 6.01997 23184 ft 296 kts 308°
2026-04-21 16:11 50.11194 5.99692 23187 ft 294 kts 319°
2026-04-21 16:12 50.12860 5.97855 23198 ft 294 kts 330°
2026-04-21 16:12 50.14755 5.96561 23193 ft 293 kts 340°
2026-04-21 16:12 50.16650 5.95490 23200 ft 294 kts 339°
2026-04-21 16:12 50.18562 5.94371 23201 ft 294 kts 339°
2026-04-21 16:13 50.20477 5.93254 23204 ft 294 kts 339°
2026-04-21 16:13 50.22396 5.92151 23210 ft 294 kts 340°
2026-04-21 16:13 50.24314 5.91041 23214 ft 294 kts 339°
2026-04-21 16:13 50.26230 5.89929 23213 ft 294 kts 339°
2026-04-21 16:14 50.28147 5.88816 23216 ft 294 kts 340°
2026-04-21 16:14 50.30064 5.87700 23208 ft 294 kts 340°
2026-04-21 16:14 50.31984 5.86586 23207 ft 294 kts 340°
2026-04-21 16:14 50.33901 5.85473 23215 ft 294 kts 340°
2026-04-21 16:15 50.35821 5.84353 23215 ft 295 kts 340°
2026-04-21 16:15 50.37741 5.83234 23214 ft 294 kts 340°
2026-04-21 16:15 50.39662 5.82112 23221 ft 295 kts 340°
2026-04-21 16:15 50.41582 5.80992 23219 ft 295 kts 340°
2026-04-21 16:16 50.43503 5.79872 23231 ft 295 kts 340°
2026-04-21 16:16 50.45427 5.78745 23227 ft 295 kts 340°
2026-04-21 16:16 50.47349 5.77619 23227 ft 295 kts 340°
2026-04-21 16:16 50.49276 5.76492 23231 ft 296 kts 340°
2026-04-21 16:17 50.51202 5.75365 23235 ft 296 kts 340°
2026-04-21 16:17 50.53131 5.74233 23235 ft 296 kts 340°
2026-04-21 16:17 50.55057 5.73103 23235 ft 296 kts 340°
2026-04-21 16:17 50.56972 5.71917 23232 ft 296 kts 336°
2026-04-21 16:18 50.58717 5.70178 23229 ft 298 kts 323°
2026-04-21 16:18 50.60198 5.67884 23222 ft 300 kts 311°
2026-04-21 16:18 50.61496 5.65302 23231 ft 301 kts 310°
2026-04-21 16:18 50.62810 5.62734 23236 ft 301 kts 311°
2026-04-21 16:19 50.64124 5.60167 23240 ft 301 kts 311°
2026-04-21 16:19 50.65435 5.57590 23234 ft 301 kts 311°
2026-04-21 16:19 50.66742 5.55009 23237 ft 301 kts 310°
2026-04-21 16:19 50.68027 5.52478 23092 ft 297 kts 311°
2026-04-21 16:20 50.69305 5.49953 22729 ft 293 kts 311°
2026-04-21 16:20 50.70570 5.47459 22348 ft 290 kts 311°
2026-04-21 16:20 50.71828 5.44971 21965 ft 291 kts 311°
2026-04-21 16:20 50.73091 5.42470 21584 ft 292 kts 311°
2026-04-21 16:21 50.74362 5.39957 21197 ft 294 kts 311°
2026-04-21 16:21 50.75635 5.37431 20802 ft 295 kts 311°
2026-04-21 16:21 50.76913 5.34894 20419 ft 296 kts 311°
2026-04-21 16:21 50.78200 5.32340 20030 ft 297 kts 311°
2026-04-21 16:22 50.79485 5.29780 19632 ft 299 kts 311°
2026-04-21 16:22 50.80785 5.27196 19239 ft 300 kts 311°
2026-04-21 16:22 50.82085 5.24603 18839 ft 301 kts 311°
2026-04-21 16:22 50.83391 5.22001 18431 ft 302 kts 311°
2026-04-21 16:23 50.84700 5.19386 18007 ft 304 kts 311°
2026-04-21 16:23 50.86016 5.16760 17604 ft 305 kts 311°
2026-04-21 16:23 50.87344 5.14142 17204 ft 305 kts 313°
2026-04-21 16:23 50.88924 5.11930 16795 ft 303 kts 326°
2026-04-21 16:24 50.90621 5.09933 16398 ft 305 kts 326°
2026-04-21 16:24 50.92309 5.07885 15996 ft 306 kts 325°
2026-04-21 16:24 50.94000 5.05833 15592 ft 307 kts 325°
2026-04-21 16:24 50.95703 5.03786 15187 ft 308 kts 326°
2026-04-21 16:25 50.97408 5.01737 14796 ft 307 kts 325°
2026-04-21 16:25 50.99100 4.99696 14380 ft 305 kts 325°
2026-04-21 16:25 51.00785 4.97656 13973 ft 304 kts 325°
2026-04-21 16:25 51.02437 4.95658 13558 ft 301 kts 325°
2026-04-21 16:26 51.04099 4.93648 13159 ft 300 kts 326°
2026-04-21 16:26 51.05754 4.91643 12768 ft 298 kts 325°
2026-04-21 16:26 51.07397 4.89647 12381 ft 296 kts 325°
2026-04-21 16:26 51.09032 4.87665 11993 ft 295 kts 326°
2026-04-21 16:27 51.10611 4.85606 11604 ft 295 kts 318°
2026-04-21 16:27 51.11863 4.83014 11217 ft 297 kts 304°
2026-04-21 16:27 51.12700 4.80013 10833 ft 297 kts 290°
2026-04-21 16:27 51.13296 4.76861 10448 ft 297 kts 289°
2026-04-21 16:28 51.13906 4.73734 10051 ft 295 kts 289°
2026-04-21 16:28 51.14521 4.70632 9645 ft 293 kts 289°
2026-04-21 16:28 51.15121 4.67549 9258 ft 290 kts 289°
2026-04-21 16:28 51.15712 4.64486 8877 ft 289 kts 289°
2026-04-21 16:29 51.16308 4.61440 8498 ft 288 kts 289°
2026-04-21 16:29 51.16880 4.58482 8132 ft 270 kts 289°
2026-04-21 16:29 51.17414 4.55705 7785 ft 257 kts 289°
2026-04-21 16:29 51.17934 4.53026 7453 ft 251 kts 289°
2026-04-21 16:30 51.18445 4.50385 7127 ft 248 kts 289°
2026-04-21 16:30 51.18889 4.47740 6800 ft 248 kts 281°
2026-04-21 16:30 51.18863 4.44996 6459 ft 248 kts 263°
2026-04-21 16:30 51.18607 4.42284 6134 ft 247 kts 263°
2026-04-21 16:31 51.18600 4.39503 5789 ft 254 kts 281°
2026-04-21 16:31 51.18541 4.36748 5463 ft 252 kts 258°
2026-04-21 16:31 51.18021 4.34079 5143 ft 248 kts 254°
2026-04-21 16:31 51.17646 4.31456 4636 ft 232 kts 263°
2026-04-21 16:32 51.17473 4.29099 4293 ft 203 kts 266°
2026-04-21 16:32 51.17305 4.26987 4025 ft 182 kts 264°
2026-04-21 16:32 51.17129 4.25095 3804 ft 166 kts 265°
2026-04-21 16:32 51.16965 4.23297 3584 ft 163 kts 265°
2026-04-21 16:33 51.16795 4.21506 3368 ft 164 kts 264°
2026-04-21 16:33 51.16626 4.19708 3151 ft 164 kts 265°
2026-04-21 16:33 51.16653 4.17930 2999 ft 158 kts 290°
2026-04-21 16:33 51.17073 4.16327 3008 ft 157 kts 300°
2026-04-21 16:34 51.17514 4.14736 3007 ft 155 kts 298°
2026-04-21 16:34 51.17933 4.13188 2995 ft 150 kts 298°
2026-04-21 16:34 51.18444 4.11792 2994 ft 143 kts 319°
2026-04-21 16:34 51.19249 4.10947 2994 ft 138 kts 342°
2026-04-21 16:35 51.20180 4.10688 2992 ft 135 kts
2026-04-21 16:35 51.21075 4.11052 2992 ft 131 kts 27°
2026-04-21 16:35 51.21799 4.11909 2994 ft 131 kts 41°
2026-04-21 16:35 51.22504 4.12844 3001 ft 132 kts 39°
2026-04-21 16:36 51.23203 4.13783 2994 ft 131 kts 40°
2026-04-21 16:36 51.23906 4.14698 2994 ft 131 kts 38°
2026-04-21 16:36 51.24610 4.15621 3000 ft 132 kts 43°
2026-04-21 16:36 51.25088 4.16861 2998 ft 133 kts 68°
2026-04-21 16:37 51.25223 4.18327 2997 ft 137 kts 87°
2026-04-21 16:37 51.24984 4.19826 2992 ft 142 kts 108°
2026-04-21 16:37 51.24633 4.21295 3000 ft 141 kts 105°
2026-04-21 16:37 51.24305 4.22758 3002 ft 139 kts 105°
2026-04-21 16:38 51.23978 4.24219 3011 ft 140 kts 105°
2026-04-21 16:38 51.23646 4.25678 3007 ft 140 kts 104°
2026-04-21 16:38 51.23319 4.27161 2943 ft 143 kts 106°
2026-04-21 16:38 51.22977 4.28634 2727 ft 143 kts 105°
2026-04-21 16:39 51.22649 4.30115 2502 ft 141 kts 104°
2026-04-21 16:39 51.22314 4.31576 2271 ft 140 kts 105°
2026-04-21 16:39 51.21992 4.33044 2044 ft 140 kts 103°
2026-04-21 16:39 51.21678 4.34505 1818 ft 138 kts 104°
2026-04-21 16:40 51.21345 4.35937 1600 ft 138 kts 105°
2026-04-21 16:40 51.21030 4.37308 1377 ft 121 kts 103°
2026-04-21 16:40 51.20766 4.38447 1198 ft 102 kts 103°
2026-04-21 16:40 51.20530 4.39490 1034 ft 98 kts 103°
2026-04-21 16:41 51.20368 4.40159 919 ft 97 kts 104°
2026-04-21 16:41 51.20078 4.41504 657 ft 95 kts 102°
2026-04-21 16:41 51.19860 4.42504 512 ft 94 kts 104°
2026-04-21 16:41 51.19622 4.43484 354 ft 95 kts 102°
2026-04-21 16:42 51.19413 4.44458 222 ft 91 kts 102°
2026-04-21 16:42 51.19200 4.45411 64 ft 91 kts 103°
2026-04-21 16:42 51.19017 4.46222 35 ft 63 kts 109°
2026-04-21 16:42 51.18894 4.46781 35 ft 45 kts 109°
2026-04-21 16:43 51.18805 4.47129 33 ft 11 kts 192°
2026-04-21 16:43 51.18768 4.47107 34 ft 2 kts 194°
2026-04-21 16:43 51.18765 4.47106 34 ft 0 kts 193°
2026-04-21 16:43 51.18748 4.47105 35 ft 8 kts 174°
2026-04-21 16:44 51.18686 4.47101 34 ft 8 kts 226°
2026-04-21 16:44 51.18654 4.47039 34 ft 7 kts 233°
2026-04-21 16:44 51.18619 4.46961 34 ft 10 kts 237°
2026-04-21 16:44 51.18586 4.46843 34 ft 13 kts 254°
2026-04-21 16:45 51.18576 4.46689 34 ft 14 kts 272°
2026-04-21 16:45 51.18593 4.46547 34 ft 11 kts 284°
2026-04-21 16:45 51.18610 4.46438 34 ft 10 kts 284°
2026-04-21 16:45 51.18627 4.46333 35 ft 10 kts 284°
2026-04-21 16:46 51.18643 4.46230 35 ft 10 kts 284°
2026-04-21 16:46 51.18659 4.46128 35 ft 10 kts 284°
2026-04-21 16:46 51.18679 4.46004 35 ft 14 kts 284°
2026-04-21 16:46 51.18705 4.45837 35 ft 16 kts 284°
2026-04-21 16:47 51.18730 4.45680 34 ft 13 kts 284°
2026-04-21 16:47 51.18751 4.45546 34 ft 12 kts 284°
2026-04-21 16:47 51.18804 4.45472 34 ft 11 kts 339°
2026-04-21 16:47 51.18879 4.45438 34 ft 11 kts 334°
2026-04-21 16:48 51.18946 4.45371 34 ft 10 kts 315°
2026-04-21 16:48 51.18967 4.45285 34 ft 8 kts 312°
2026-04-21 16:48 51.18992 4.45302 34 ft 4 kts 82°
2026-04-21 16:48 51.19003 4.45312 34 ft 0 kts 294°